Change the Weather History Date:

Tuesday, September 24, 2013

  Actual Average Record
Temperature  
Mean Temperature 58 °F -  
Max Temperature 72 °F 74 °F 98 °F (2010)
Min Temperature 46 °F 57 °F 45 °F (1998)
Degree Days  
Heating Degree Days 6    
Growing Degree Days 8 (Base 50)    
Moisture  
Dew Point 47 °F    
Average Humidity 74    
Maximum Humidity 93    
Minimum Humidity 41    
Precipitation  
Precipitation 0.00 in - - ()
Sea Level Pressure  
Sea Level Pressure 30.03 in    
Wind  
Wind Speed 4 mph (West)    
Max Wind Speed 10 mph    
Max Gust Speed -    
Visibility 10 miles    
Events      
Averages and records for this station are not official NWS values.
T = Trace of Precipitation, MM = Missing Value Source: NWS Daily Summary

Daily Weather History Graph

Daily Weather History Graph

Search for Another Location

Airport or City:

Trip Planner

Search our weather history database for the weather conditions in past years. The results will help you decide how hot, cold, wet, or windy it might be!

Date:

Astronomy

Sep. 24, 2013 Rise Set
Actual Time 6:55 AM EDT 6:59 PM EDT
Civil Twilight 6:28 AM EDT 7:25 PM EDT
Nautical Twilight 5:58 AM EDT 7:56 PM EDT
Astronomical Twilight 5:26 AM EDT 8:27 PM EDT
Moon 10:19 PM EDT (9/24) 12:03 PM EDT (9/24)
Length of Visible Light 12h 56m
Length of Day
12h 03m
Waning Gibbous, 73% of the Moon is Illuminated
Sep 24
Waning Gibbous
Sep 26
Last Quarter
Oct 4
New
Oct 11
First Quarter
Oct 18
Full

Hourly Weather History & Observations

Time (EDT) Temp. Dew Point Humidity Pressure Visibility Wind Dir Wind Speed Gust Speed Precip Events Conditions
12:52 AM 48.9 °F 46.0 °F 90% 30.08 in 10.0 mi WSW 4.6 mph - N/A   Clear
1:52 AM 48.9 °F 46.9 °F 93% 30.08 in 10.0 mi West 4.6 mph - N/A   Clear
2:52 AM 48.9 °F 46.9 °F 93% 30.08 in 10.0 mi WSW 3.5 mph - N/A   Scattered Clouds
3:52 AM 48.0 °F 46.0 °F 93% 30.08 in 10.0 mi Calm Calm - N/A   Partly Cloudy
4:52 AM 46.9 °F 45.0 °F 93% 30.08 in 10.0 mi Calm Calm - N/A   Clear
5:07 AM 46.4 °F 42.8 °F 87% 30.08 in 10.0 mi Calm Calm - N/A   Partly Cloudy
5:52 AM 46.0 °F 44.1 °F 93% 30.08 in 10.0 mi Calm Calm - N/A   Partly Cloudy
6:52 AM 46.9 °F 45.0 °F 93% 30.10 in 10.0 mi WSW 3.5 mph - N/A   Partly Cloudy
7:52 AM 51.1 °F 48.9 °F 92% 30.10 in 10.0 mi WSW 4.6 mph - N/A   Partly Cloudy
8:52 AM 59.0 °F 52.0 °F 78% 30.10 in 10.0 mi WNW 3.5 mph - N/A   Partly Cloudy
9:52 AM 62.1 °F 48.0 °F 60% 30.10 in 10.0 mi NNW 6.9 mph - N/A   Partly Cloudy
10:52 AM 64.0 °F 45.0 °F 50% 30.10 in 10.0 mi North 6.9 mph - N/A   Partly Cloudy
11:52 AM 64.9 °F 44.1 °F 47% 30.08 in 10.0 mi WNW 9.2 mph - N/A   Partly Cloudy
12:52 PM 68.0 °F 45.0 °F 43% 30.05 in 10.0 mi NNW 10.4 mph - N/A   Partly Cloudy
1:52 PM 70.0 °F 46.0 °F 42% 30.02 in 10.0 mi NW 5.8 mph - N/A   Clear
2:52 PM 71.1 °F 46.0 °F 41% 29.99 in 10.0 mi Variable 6.9 mph - N/A   Clear
3:52 PM 71.1 °F 46.0 °F 41% 29.97 in 10.0 mi NW 6.9 mph - N/A   Clear
4:52 PM 68.0 °F 51.1 °F 55% 29.96 in 10.0 mi East 4.6 mph - N/A   Clear
5:52 PM 66.9 °F 52.0 °F 59% 29.96 in 10.0 mi SE 3.5 mph - N/A   Clear
6:52 PM 63.0 °F 53.1 °F 70% 29.96 in 10.0 mi South 3.5 mph - N/A   Clear
7:52 PM 55.0 °F 50.0 °F 83% 29.96 in 10.0 mi Calm Calm - N/A   Clear
8:52 PM 54.0 °F 48.9 °F 83% 29.97 in 10.0 mi Calm Calm - N/A   Clear
9:52 PM 51.1 °F 48.0 °F 89% 29.96 in 10.0 mi Calm Calm - N/A   Clear
10:52 PM 51.1 °F 48.0 °F 89% 29.96 in 10.0 mi SW 5.8 mph - N/A   Clear
11:52 PM 55.0 °F 50.0 °F 83% 29.96 in 10.0 mi Calm Calm - N/A   Clear